Weather History for KISW - July, 2013

Change the Weather History Date:

Thursday, July 18, 2013

  Actual Average Record
Temperature  
Mean Temperature 84 °F -  
Max Temperature 96 °F 83 °F 96 °F (2013)
Min Temperature 73 °F 60 °F 45 °F (2000)
Cooling Degree Days 19    
Growing Degree Days 34 (Base 50)    
Moisture  
Dew Point 69 °F    
Average Humidity 62    
Maximum Humidity 90    
Minimum Humidity 40    
Precipitation  
Precipitation 0.00 in - - ()
Sea Level Pressure  
Sea Level Pressure 30.00 in    
Wind  
Wind Speed 8 mph (SW)    
Max Wind Speed 20 mph    
Max Gust Speed 29 mph    
Visibility 10 miles    
Events Rain    
Averages and records for this station are not official NWS values.
T = Trace of Precipitation, MM = Missing Value Source: NWS Daily Summary

Daily Weather History Graph

Daily Weather History Graph

Search for Another Location

Airport or City:

Trip Planner

Search our weather history database for the weather conditions in past years. The results will help you decide how hot, cold, wet, or windy it might be!

Date:

Astronomy

Jul. 18, 2013 Rise Set
Actual Time 5:32 AM CDT 8:38 PM CDT
Civil Twilight 4:57 AM CDT 9:13 PM CDT
Nautical Twilight 4:12 AM CDT 9:57 PM CDT
Astronomical Twilight 3:18 AM CDT 10:51 PM CDT
Moon 4:34 PM CDT (7/18) 1:24 AM CDT (7/18)
Length of Visible Light 16h 15m
Length of Day
15h 06m
Waxing Gibbous, 77% of the Moon is Illuminated
Jul 18
Waxing Gibbous
Jul 22
Full
Jul 29
Last Quarter
Aug 6
New
Aug 14
First Quarter

Hourly Weather History & Observations

Time (CDT) Temp. Heat Index Dew Point Humidity Pressure Visibility Wind Dir Wind Speed Gust Speed Precip Events Conditions
12:54 AM 73.0 °F - 70.0 °F 90% 30.16 in 10.0 mi Calm Calm - N/A   Clear
1:54 AM 73.0 °F - 69.1 °F 87% 30.15 in 10.0 mi South 3.5 mph - N/A   Clear
2:54 AM 73.9 °F - 70.0 °F 87% 30.14 in 10.0 mi SSW 5.8 mph - N/A   Clear
3:54 AM 73.9 °F - 70.0 °F 87% 30.13 in 10.0 mi SSW 4.6 mph - N/A   Clear
4:54 AM 75.0 °F - 70.0 °F 84% 30.12 in 10.0 mi SSW 4.6 mph - 0.00 in Rain Light Rain
5:54 AM 75.9 °F - 70.0 °F 82% 30.10 in 10.0 mi SSW 5.8 mph - 0.00 in   Clear
6:54 AM 79.0 °F - 70.0 °F 74% 30.09 in 10.0 mi SW 6.9 mph - N/A   Clear
7:54 AM 81.0 °F 84.4 °F 70.0 °F 69% 30.09 in 10.0 mi WSW 6.9 mph - N/A   Clear
8:54 AM 84.9 °F 90.1 °F 71.1 °F 63% 30.08 in 10.0 mi SW 8.1 mph - N/A   Clear
9:54 AM 88.0 °F 92.9 °F 70.0 °F 55% 30.07 in 10.0 mi WSW 9.2 mph - N/A   Clear
10:54 AM 90.0 °F 96.4 °F 71.1 °F 54% 30.06 in 10.0 mi West 10.4 mph 17.3 mph N/A   Partly Cloudy
11:54 AM 91.9 °F 97.4 °F 70.0 °F 48% 30.03 in 10.0 mi SW 12.7 mph - N/A   Mostly Cloudy
12:54 PM 93.9 °F 98.6 °F 68.0 °F 43% 30.01 in 10.0 mi SW 18.4 mph 21.9 mph N/A   Mostly Cloudy
1:54 PM 93.9 °F 97.0 °F 66.0 °F 40% 29.98 in 10.0 mi WSW 15.0 mph 25.3 mph N/A   Partly Cloudy
2:54 PM 95.0 °F 100.7 °F 69.1 °F 43% 29.95 in 10.0 mi SW 12.7 mph 21.9 mph N/A   Partly Cloudy
3:54 PM 93.9 °F 98.6 °F 68.0 °F 43% 29.93 in 10.0 mi SW 19.6 mph 28.8 mph N/A   Scattered Clouds
4:54 PM 93.0 °F 97.4 °F 68.0 °F 44% 29.91 in 10.0 mi SW 16.1 mph 26.5 mph N/A   Scattered Clouds
5:54 PM 91.9 °F 95.4 °F 66.9 °F 44% 29.90 in 10.0 mi SW 18.4 mph 26.5 mph N/A   Partly Cloudy
6:54 PM 90.0 °F 92.8 °F 66.9 °F 46% 29.87 in 10.0 mi WSW 11.5 mph 20.7 mph N/A   Clear
7:54 PM 87.1 °F 89.9 °F 66.9 °F 51% 29.85 in 10.0 mi SW 13.8 mph 19.6 mph N/A   Clear
8:54 PM 84.9 °F 88.2 °F 68.0 °F 57% 29.84 in 10.0 mi SSW 10.4 mph - N/A   Clear
9:54 PM 82.9 °F 86.5 °F 69.1 °F 63% 29.86 in 10.0 mi SSW 10.4 mph 19.6 mph N/A   Clear
10:54 PM 82.0 °F 85.5 °F 69.1 °F 65% 29.86 in 10.0 mi SSW 11.5 mph - N/A   Clear
11:54 PM 81.0 °F 84.1 °F 69.1 °F 67% 29.83 in 10.0 mi SSW 10.4 mph - N/A   Clear